Regional Weather Roundup
Issued by NWS

Home | Current Version | Previous Version | Text Only | Print | Product List | Glossary On
Versions: 1 2 3 4 5 6 7 8 9 10 11 12 13 14 15 16 17 18 19 20 21 22 23 24 25 26 27 28 29 30 31 32 33 34 35 36 37 38 39 40 41 42 43 44 45 46 47 48 49 50
000
ASUS43 KDTX 230910
RWRMI
MICHIGAN HOURLY REGIONAL WEATHER ROUNDUP
NATIONAL WEATHER SERVICE DETROIT/PONTIAC MI
500 AM EDT WED JUL 23 2014

NOTE: "FAIR" INDICATES FEW OR NO CLOUDS BELOW 12,000 FEET WITH NO
SIGNIFICANT WEATHER AND/OR OBSTRUCTION TO VISIBILITY.

MIZ047>049-052>055-059>063-066>070-074>076-081>083-231000-
SOUTHEAST LOWER MICHIGAN

CITY           SKY/WX    TMP DP  RH WIND       PRES   REMARKS
ADRIAN         CLOUDY    75  62  64 N8        29.96R
ALMA           CLOUDY    62  56  81 N12G18    29.98R
ANN ARBOR      CLOUDY    73  63  70 NW9       29.95R
BAD AXE        CLOUDY    64  59  83 N7        29.99R
CARO           CLOUDY    66  63  90 N7        29.99R
DETROIT CITY   LGT RAIN  77  70  79 SW9       29.92R
DETROIT        CLOUDY    75  68  78 SW8       29.94R
FLINT          CLOUDY    70  62  76 NW13      29.98R
GROSSE ILE     CLOUDY    75  72  88 SW5       29.92R
HILLSDALE      LGT RAIN  70  66  87 NW6       29.98R
HOWELL         CLOUDY    69  64  82 NW9       29.99R

CITY           SKY/WX    TMP DP  RH WIND       PRES   REMARKS
JACKSON        CLOUDY    71  65  81 W3        29.99R
LAMBERTVILLE   CLOUDY    73  70  88 CALM      29.95S FOG
LANSING        CLOUDY    65  58  78 N10       29.99R
LAPEER         CLOUDY    69  61  76 N10       29.98R
MASON          CLOUDY    68  65  88 NE8       29.98R
MONROE         CLOUDY    73  70  88 W7        29.92R FOG
MT. CLEMENS    CLOUDY    75  71  86 SW9       29.92R
PONTIAC        CLOUDY    74  66  76 N10G17    29.96R
PORT HOPE        N/A     64  59  83 VRB3      29.95R
PORT HURON     CLOUDY    72  66  83 NE12      29.95R
TRI CITIES     CLOUDY    65  58  78 N13       29.99R
TROY           CLOUDY    77  65  66 CALM      29.95R
SAGINAW HB     CLOUDY    63  59  88 N9        29.99R
$$
MIZ043>046-050>051-056>058-064>065-071>073-077>080-231000-
SOUTHWEST LOWER MICHIGAN

CITY           SKY/WX    TMP DP  RH WIND       PRES   REMARKS
BATTLE CREEK   CLOUDY    69  66  90 NW7       29.97R
BENTON HARBOR  CLOUDY    67  65  93 VRB7      29.99S
BIG RAPIDS     CLOUDY    62  55  77 N14G21    30.01S
COLDWATER      LGT RAIN  70  67  90 NW3       29.96R
FREMONT        FAIR      61  57  88 N7        30.01S
HOLLAND        CLOUDY    64  59  83 VRB7      30.01R
GRAND RAPIDS   CLOUDY    65  59  81 N13       29.98R
IONIA          FAIR      63  56  80 N10G16    29.98R
KALAMAZOO      CLOUDY    70  66  87 NW10      29.96S
LUDINGTON      CLEAR     57  55  93 N9        30.07R
MARSHALL       CLOUDY    68  65  91 CALM      29.97R
MOUNT PLEASANT CLOUDY    62  57  81 NW9       29.98R
MUSKEGON       MOCLDY    63  57  81 N13       30.01F
SOUTH HAVEN    CLOUDY    68  68  99 N10       29.99S
$$
MIZ016>042-231000-
NORTHERN LOWER MICHIGAN

CITY           SKY/WX    TMP DP  RH WIND       PRES   REMARKS
ALPENA         PTCLDY    59  54  83 NW9       29.97S
BEAVER ISLAND  PTCLDY    57  56  95 NW7       30.08R
BELLAIRE       CLOUDY    60  55  84 CALM      30.04R
CADILLAC       CLOUDY    59  56  90 N8G17     30.04R
CHARLEVOIX     PTCLDY    60  57  89 NW13      30.07S
FRANKFORT      PTCLDY    59  54  83 N8        30.08R
GAYLORD        CLEAR     57  53  86 NW6       30.03S
GRAYLING       CLOUDY    59  56  88 NW6       30.02F
HARBOR SPRINGS PTCLDY    59  55  87 NW6       30.03S
HOUGHTON LAKE  CLOUDY    60  55  83 N14G22    30.01F
MANISTEE       CLEAR     59  54  82 N7        30.07S
OSCODA         CLOUDY    62  55  77 N15G23    29.94R
PELLSTON       PTCLDY    57  55  93 NW8       30.04R
ROGERS CITY    CLEAR     58  57  95 NW9G17    30.00S
TRAVERSE CITY  CLOUDY    61  55  81 NW10      30.04S
$$
MIZ007>008-015-231000-
EASTERN UPPER MICHIGAN

CITY           SKY/WX    TMP DP  RH WIND       PRES   REMARKS
KINROSS        CLOUDY    55  54  94 NW9       30.03R
MACKINAC ISLAN PTCLDY    55  54  97 NW10      30.03S
NEWBERRY       CLOUDY    52  51  95 NW9       30.07S
S. S. MARIE    CLOUDY    56  53  90 W6        30.02R
MUNISING         N/A     54  49  83 NW9       30.11S
$$
MIZ004>006-011>014-085-231000-
CENTRAL UPPER MICHIGAN

CITY           SKY/WX    TMP DP  RH WIND       PRES   REMARKS
MANISTIQUE     CLEAR     50  50  98 NW7       30.09R
ESCANABA       PTCLDY    55  50  82 NW3       30.12R
MENOMINEE      CLEAR     55  52  88 N6        30.12S
SAWYER-GWINN   PTCLDY    54  51  90 N7        30.14S
$$
MIZ001>003-009>011-084-231000-
WESTERN UPPER MICHIGAN

CITY           SKY/WX    TMP DP  RH WIND       PRES   REMARKS
IRON MOUNTAIN  PTCLDY    55  52  89 N3        30.14S
HOUGHTON       CLOUDY    54  52  93 NW6       30.17R
COPPER HARBOR    N/A     52  49  89 CALM      30.16R
IRONWOOD       CLEAR     54  50  87 E3        30.16R
$$

ABBREVIATIONS USED IN REMARKS
   TC - TEMPERATURE IN CELSIUS
  WCI - WIND CHILL INDEX
   HX - HEAT INDEX
  VSB - VISIBILITY



USA.gov is the U.S. government's official web portal to all federal, state and local government web resources and services.